Date String (YYYY-MM-DD hh:mm:ss) UTC,Instrument flags,Ambient pressure (hPa),Sample flow (lpm),Bypass flow (lpm),Sample temperature (°C),Ambient temperature (°C),ASC tube jacket temperature (°C),LED temperature (°C),Box temperature (°C),Sample RH (%),Span deviation,Mass concentration (μg/m³),Mass concentration (μg/m³),Mass concentration (μg/m³)
DateTimeUTC,F1_M11,P_M11,Q1_M11,Q2_M11,T1_M11,T2_M11,T3_M11,T4_M11,T5_M11,U1_M11,ZSPAN_M11,X0_M11,X2_M11,X1_M11
2022-12-22 03:00:00,,0825.3,4.96,0.00,21.2,21.0,00.0,29.9,22.8,03.5,0000.1,0019.88,0006.26,0003.86
2022-12-22 03:01:00,,0825.2,5.04,0.00,21.0,19.9,00.0,29.9,22.4,03.6,-000.4,0019.55,0006.12,0003.86
2022-12-22 03:02:00,,0825.2,5.00,0.00,20.8,18.9,00.0,29.9,22.0,03.6,-000.3,0019.49,0006.05,0003.85
2022-12-22 03:03:00,,0825.2,4.95,0.00,20.8,19.3,00.0,29.8,22.0,03.6,0000.0,0019.74,0005.95,0003.83
2022-12-22 03:04:00,,0825.2,5.02,0.00,20.9,20.3,00.0,29.7,22.4,03.6,-000.0,0019.58,0005.88,0003.80
2022-12-22 03:05:00,,0825.2,4.98,0.00,21.0,21.1,00.0,29.7,22.7,03.5,0000.1,0019.62,0005.87,0003.79
2022-12-22 03:06:00,,0825.2,5.04,0.00,21.1,21.6,00.0,29.8,22.9,03.5,0000.2,0019.27,0005.85,0003.78
2022-12-22 03:07:00,,0825.1,4.96,0.00,21.1,20.9,00.0,29.8,22.7,03.5,0000.3,0017.57,0005.77,0003.76
2022-12-22 03:08:00,,0825.2,5.05,0.00,21.0,19.9,00.0,29.8,22.4,03.5,0000.0,0016.60,0005.75,0003.76
2022-12-22 03:09:00,,0825.2,4.96,0.00,20.8,19.1,00.0,29.8,22.1,03.5,0000.8,0015.72,0005.73,0003.75
2022-12-22 03:10:00,,0825.2,5.01,0.00,20.7,18.8,00.0,29.8,21.9,03.6,0000.7,0014.79,0005.70,0003.76
2022-12-22 03:11:00,,0825.0,5.04,0.00,20.8,19.9,00.0,29.7,22.2,03.5,0001.4,0014.62,0005.64,0003.77
2022-12-22 03:12:00,,0824.9,4.98,0.00,20.9,20.8,00.0,29.7,22.5,03.5,0001.8,0014.16,0005.56,0003.75
2022-12-22 03:13:00,,0825.0,5.02,0.00,21.0,21.5,00.0,29.7,22.8,03.5,0001.0,0013.81,0005.51,0003.75
2022-12-22 03:14:00,,0825.2,5.01,0.00,21.1,21.3,00.0,29.7,22.7,03.5,-000.0,0013.54,0005.52,0003.76
2022-12-22 03:15:00,,0825.2,4.96,0.00,21.0,20.3,00.0,29.8,22.5,03.5,-000.3,0013.65,0005.57,0003.77
2022-12-22 03:16:00,,0825.2,5.00,0.00,20.8,19.3,00.0,29.8,22.2,03.5,-000.4,0013.53,0005.53,0003.78
2022-12-22 03:17:00,,0825.2,5.01,0.00,20.7,18.6,00.0,29.8,21.9,03.5,-000.6,0013.16,0005.50,0003.79
2022-12-22 03:18:00,,0825.2,4.98,0.00,20.7,19.3,00.0,29.7,22.0,03.6,-000.4,0013.08,0005.50,0003.80
2022-12-22 03:19:00,,0825.2,5.04,0.00,20.8,20.3,00.0,29.6,22.3,03.5,-000.0,0013.22,0005.50,0003.81
2022-12-22 03:20:00,,0825.3,4.97,0.00,20.9,21.1,00.0,29.6,22.6,03.5,-000.5,0013.46,0005.46,0003.80
2022-12-22 03:21:00,,0825.3,4.98,0.00,21.0,21.7,00.0,29.6,22.8,03.5,-000.6,0014.10,0005.43,0003.82
2022-12-22 03:22:00,,0825.2,5.03,0.00,21.0,21.3,00.0,29.7,22.7,03.5,-001.4,0014.71,0005.49,0003.84
2022-12-22 03:23:00,,0825.0,5.00,0.00,20.9,19.8,00.0,29.7,22.3,03.5,-001.4,0014.65,0005.54,0003.85
2022-12-22 03:24:00,,0824.9,4.97,0.00,20.7,18.6,00.0,29.7,21.9,03.5,-001.4,0014.79,0005.63,0003.86
2022-12-22 03:25:00,,0824.9,5.04,0.00,20.6,18.4,00.0,29.7,21.7,03.6,-001.0,0014.74,0005.67,0003.87
2022-12-22 03:26:00,,0825.0,4.98,0.00,20.7,19.7,00.0,29.6,22.0,03.5,-000.8,0014.62,0005.68,0003.89
2022-12-22 03:27:00,,0825.0,5.01,0.00,20.8,20.7,00.0,29.6,22.4,03.5,-000.7,0014.84,0005.71,0003.89
2022-12-22 03:28:00,,0825.1,4.98,0.00,20.9,21.4,00.0,29.6,22.6,03.5,-000.2,0016.06,0005.76,0003.89
2022-12-22 03:29:00,,0825.2,5.01,0.00,20.9,20.9,00.0,29.6,22.5,03.5,-000.5,0016.17,0005.80,0003.89
2022-12-22 03:30:00,,0825.2,4.98,0.00,20.8,19.7,00.0,29.7,22.2,03.5,-001.2,0016.35,0005.82,0003.89
2022-12-22 03:31:00,,0825.3,5.02,0.00,20.7,18.8,00.0,29.6,21.9,03.6,-001.1,0016.81,0005.88,0003.90
2022-12-22 03:32:00,,0825.3,5.01,0.00,20.6,18.7,00.0,29.6,21.8,03.6,-000.2,0016.51,0005.93,0003.90
2022-12-22 03:33:00,,0825.4,4.96,0.00,20.6,20.0,00.0,29.5,22.1,03.6,0001.1,0016.30,0005.93,0003.89
2022-12-22 03:34:00,,0825.4,5.05,0.00,20.7,20.9,00.0,29.5,22.3,03.5,0001.1,0016.00,0005.94,0003.88
2022-12-22 03:35:00,,0825.5,4.98,0.00,20.9,21.5,00.0,29.5,22.6,03.5,0001.5,0016.24,0005.92,0003.87
2022-12-22 03:36:00,,0825.4,4.98,0.00,20.9,21.2,00.0,29.6,22.6,03.5,0001.0,0016.44,0005.95,0003.89
2022-12-22 03:37:00,,0825.4,5.05,0.00,20.8,19.9,00.0,29.6,22.2,03.5,0000.8,0016.83,0005.96,0003.89
2022-12-22 03:38:00,,0825.4,4.97,0.00,20.7,18.9,00.0,29.6,21.9,03.5,0001.2,0016.90,0005.99,0003.90
2022-12-22 03:39:00,,0825.3,4.99,0.00,20.6,18.2,00.0,29.6,21.7,03.6,0001.4,0015.95,0006.04,0003.92
2022-12-22 03:40:00,,0825.3,5.04,0.00,20.5,19.2,00.0,29.5,21.9,03.6,0001.7,0015.90,0006.01,0003.93
2022-12-22 03:41:00,,0825.4,4.97,0.00,20.7,20.5,00.0,29.5,22.2,03.6,0002.0,0015.95,0005.97,0003.93
2022-12-22 03:42:00,,0825.5,5.04,0.00,20.8,21.3,00.0,29.5,22.5,03.5,0002.5,0015.45,0005.95,0003.95
2022-12-22 03:43:00,,0825.3,4.97,0.00,20.8,20.7,00.0,29.5,22.4,03.5,0002.3,0015.49,0005.95,0003.98
2022-12-22 03:44:00,,0825.1,5.04,0.00,20.7,19.5,00.0,29.6,22.0,03.5,0002.4,0016.41,0006.06,0003.99
2022-12-22 03:45:00,,0825.1,4.95,0.00,20.5,18.6,00.0,29.5,21.7,03.5,0002.6,0016.93,0006.04,0003.99
2022-12-22 03:46:00,,0825.2,5.04,0.00,20.4,18.8,00.0,29.5,21.7,03.6,0002.1,0016.42,0005.99,0003.99
2022-12-22 03:47:00,,0825.3,4.99,0.00,20.5,19.9,00.0,29.4,22.0,03.5,0001.9,0016.07,0005.94,0003.97
2022-12-22 03:48:00,,0825.3,5.01,0.00,20.6,20.8,00.0,29.4,22.3,03.5,0001.6,0015.74,0005.91,0003.95
2022-12-22 03:49:00,,0825.2,4.98,0.00,20.8,21.4,00.0,29.4,22.5,03.5,0000.6,0016.54,0005.89,0003.93
2022-12-22 03:50:00,,0825.1,4.99,0.00,20.9,21.8,00.0,29.4,22.7,03.5,0000.3,0016.94,0005.86,0003.92
2022-12-22 03:51:00,,0825.0,5.03,0.00,20.9,20.9,00.0,29.5,22.4,03.5,-000.5,0017.43,0005.84,0003.91
2022-12-22 03:52:00,,0825.0,4.99,0.00,20.7,19.7,00.0,29.5,22.1,03.5,-001.0,0017.34,0005.89,0003.92
2022-12-22 03:53:00,,0825.3,4.97,0.00,20.6,18.7,00.0,29.5,21.7,03.5,-002.1,0016.92,0005.88,0003.91
2022-12-22 03:54:00,,0825.4,5.03,0.00,20.5,18.8,00.0,29.5,21.7,03.5,-001.9,0016.71,0005.85,0003.88
2022-12-22 03:55:00,,0825.3,4.98,0.00,20.6,19.9,00.0,29.4,22.0,03.5,-002.0,0015.90,0005.78,0003.86
2022-12-22 03:56:00,,0825.2,5.01,0.00,20.7,20.7,00.0,29.4,22.3,03.5,-002.4,0015.16,0005.76,0003.88
2022-12-22 03:57:00,,0825.1,4.98,0.00,20.8,21.3,00.0,29.4,22.5,03.5,-001.9,0014.97,0005.74,0003.91
2022-12-22 03:58:00,,0825.1,4.99,0.00,20.9,21.8,00.0,29.4,22.7,03.4,-001.9,0015.05,0005.75,0003.93
2022-12-22 03:59:00,,0825.2,5.05,0.00,21.0,21.1,00.0,29.5,22.6,03.4,-001.8,0014.81,0005.70,0003.95
